Back to catalog

ONEWEB-0663

AliveCommunicationsPO
NORAD 55823·PAYLOAD·🇬🇧 United Kingdom

Launched Mar 9, 2023 from Cape Canaveral Space Force Station

Loading…

Next Passes (next 24 hours)

TLE

FreshSource: CelesTrak SupGP

Epoch: Sep 14, 2026, 06:18 UTC

1 55823C 23029AD  26257.26266618 -.00000353  00000+0 -86831-3 0  2576
2 55823  87.9136 256.7323 0002162  78.5004   2.9478 13.20871660    17

Track ONEWEB-0663 in real time with AllMySat

Download on the App Store